ARIANE 5 R/B, 41383

Orbit data source: Space-Track

ARIANE 5 R/B, 41383 is space debris in HEO originally from a launch on Wed, 09 Mar 2016 UTC launched from the French Guiana (FRGUI). Debris objects in space refer to the collection of defunct objects orbiting the Earth. Examples of debris include non-operational satellites, rocket bodies, and fragments generated from explosions, collisions, or faulty payload assembly.

Loading next visibility...
Identifier
41383, 2016-014B
Orbit
HEO
Country
Flag of FRFR
Related business
Manufacturer
Airbus Safran
Mission
Spacecraft
Bus & Motor
ESC-A, Unknown motor
Mass
~5,000 kg wet, ~5,000 kg dry
Launch date (UTC)
2016-03-09 (10 years ago)
Launch vehicle
Unknown
Launch site
French Guiana (FRGUI)
Object type
Payload
Rocket body
Debris
Shape & HBR
Cyl + 1 Nozzle, 3.5 m
Radar Cross Section
41.627 m², Large (>1 m²)

Expand to show TLE details & history
Last TLE update: 17 hours ago

TLE from 17 hours ago
0 ARIANE 5 R/B
1 41383U 16014B   25311.13166201  .00023062  00000-0  11479-2 0  9990
2 41383   0.4599  84.2755 6577719 190.8991  18.3197  3.25674364 95360
Epoch: 2025-11-07T03:09Z
TLE epoch observation values (Epoch: 2025-11-07T03:09:35.597Z)
Latitude
-0.43226°
Longitude
-93.97757°
Altitude
3,927.128 km
Speed
7.524 km/s
True Right ascension
00h 00m 00s
True Declination
0° 25' 50"
Sunlit
Object was in daylight at epoch
Visualization orbit readout
Latitude
Unknown
Longitude
Unknown
Altitude
Unknown
Speed
Unknown
Apparent Right ascension
Unknown
Apparent Declination
Unknown
Sunlit
N/A
Visualization observer readout
Local Sidereal Time
15:52:55
Azimuth
Unknown
Elevation
Unknown
Doppler factor
Unknown
Orbital elements
Apogee altitude
25,502.397 km
Perigee altitude
203.236 km
Semi-major axis
19,230.953 km
Eccentricity
0.65777
Inclination
0.4599°
RAAN
84.2755°
Arg. of periapsis
190.8991°
True anomaly
84.62568°
Mean anomaly
18.3197°
Eccentric anomaly
44.94169°
Mean motion
0.81385 °/min
Orbital period
442.34 mins
BSTAR
0.0011479
Loading maneuver chart data...
Computing Atmospheric mass density...
Loading historical data...
Loading historical data...
Loading historical data...
Loading historical data...
Loading historical data...
Loading historical data...
Loading historical data...
Other satellites on launch #14 in the year 2016 (2016-03-09 UTC)

Documentation

Showing up to 5 results
|